Weather History for KLGC - January, 2014

Change the Weather History Date:

Wednesday, January 8, 2014

  Actual Average Record
Temperature  
Mean Temperature 29 °F -  
Max Temperature 46 °F 54 °F 71 °F (1965)
Min Temperature 12 °F 32 °F 6 °F (1970)
Degree Days  
Heating Degree Days 36    
Moisture  
Dew Point 9 °F    
Average Humidity 57    
Maximum Humidity 92    
Minimum Humidity 16    
Precipitation  
Precipitation 0.00 in - - ()
Sea Level Pressure  
Sea Level Pressure 30.48 in    
Wind  
Wind Speed 1 mph (East)    
Max Wind Speed 5 mph    
Max Gust Speed -    
Visibility 10 miles    
Events      
Averages and records for this station are not official NWS values.
T = Trace of Precipitation, MM = Missing Value Source: NWS Daily Summary

Daily Weather History Graph

Daily Weather History Graph

Search for Another Location

Airport or City:

Trip Planner

Search our weather history database for the weather conditions in past years. The results will help you decide how hot, cold, wet, or windy it might be!

Date:

Astronomy

Jan. 08, 2014 Rise Set
Actual Time 7:44 AM EST 5:50 PM EST
Civil Twilight 7:16 AM EST 6:17 PM EST
Nautical Twilight 6:46 AM EST 6:47 PM EST
Astronomical Twilight 6:16 AM EST 7:17 PM EST
Moon 12:32 PM EST (1/8) 12:59 AM EST (1/8)
Length of Visible Light 11h 00m
Length of Day
10h 06m
First Quarter, 56% of the Moon is Illuminated
Jan 8
First Quarter
Jan 15
Full
Jan 24
Last Quarter
Jan 30
New
Feb 6
First Quarter

Hourly Weather History & Observations

Time (EST) Temp. Windchill Dew Point Humidity Pressure Visibility Wind Dir Wind Speed Gust Speed Precip Events Conditions
12:15 AM 15.8 °F - 10.6 °F 80% 30.49 in 10.0 mi Calm Calm - N/A   Clear
12:35 AM 14.7 °F - 10.9 °F 85% 30.48 in 10.0 mi Calm Calm - N/A   Clear
12:55 AM 15.4 °F - 11.5 °F 84% 30.48 in 10.0 mi Calm Calm - N/A   Clear
1:15 AM 14.7 °F - 10.8 °F 84% 30.47 in 10.0 mi Calm Calm - N/A   Clear
1:35 AM 14.9 °F - 10.9 °F 84% 30.47 in 10.0 mi Calm Calm - N/A   Clear
1:55 AM 14.5 °F - 11.1 °F 86% 30.48 in 10.0 mi Calm Calm - N/A   Clear
2:15 AM 14.0 °F - 11.7 °F 90% 30.48 in 10.0 mi Calm Calm - N/A   Clear
2:35 AM 14.7 °F - 11.3 °F 86% 30.49 in 10.0 mi Calm Calm - N/A   Clear
2:55 AM 14.4 °F - 10.4 °F 84% 30.49 in 10.0 mi Calm Calm - N/A   Clear
3:15 AM 14.5 °F - 11.1 °F 86% 30.49 in 10.0 mi Calm Calm - N/A   Clear
3:35 AM 14.2 °F - 10.6 °F 86% 30.49 in 10.0 mi Calm Calm - N/A   Clear
3:55 AM 13.8 °F - 10.2 °F 86% 30.49 in 10.0 mi Calm Calm - N/A   Clear
4:15 AM 13.3 °F - 10.9 °F 90% 30.50 in 10.0 mi Calm Calm - N/A   Clear
4:35 AM 13.8 °F - 11.3 °F 90% 30.50 in 10.0 mi Calm Calm - N/A   Clear
4:55 AM 13.1 °F - 11.1 °F 92% 30.49 in 10.0 mi Calm Calm - N/A   Clear
5:15 AM 14.0 °F - 11.7 °F 90% 30.49 in 10.0 mi Calm Calm - N/A   Clear
5:35 AM 13.3 °F - 9.9 °F 86% 30.49 in 10.0 mi Calm Calm - N/A   Clear
5:55 AM 13.3 °F - 10.4 °F 88% 30.49 in 10.0 mi Calm Calm - N/A   Clear
6:15 AM 13.8 °F - 10.4 °F 86% 30.50 in 10.0 mi Calm Calm - N/A   Clear
6:35 AM 13.8 °F - 10.4 °F 86% 30.50 in 10.0 mi Calm Calm - N/A   Clear
6:55 AM 13.6 °F - 10.4 °F 87% 30.49 in 10.0 mi Calm Calm - N/A   Clear
7:15 AM 12.7 °F - 10.2 °F 90% 30.50 in 10.0 mi Calm Calm - N/A   Clear
7:35 AM 13.8 °F - 10.8 °F 88% 30.50 in 10.0 mi Calm Calm - N/A   Clear
7:55 AM 13.1 °F - 10.4 °F 89% 30.51 in 10.0 mi Calm Calm - N/A   Clear
8:15 AM 14.9 °F - 11.7 °F 87% 30.52 in 10.0 mi Calm Calm - N/A   Clear
8:35 AM 16.7 °F - 12.4 °F 83% 30.54 in 10.0 mi Calm Calm - N/A   Clear
8:55 AM 19.8 °F - 13.3 °F 76% 30.54 in 10.0 mi Calm Calm - N/A   Clear
9:15 AM 22.8 °F - 9.9 °F 58% 30.54 in 10.0 mi Calm Calm - N/A   Clear
9:35 AM 25.0 °F 19.3 °F 10.2 °F 54% 30.54 in 10.0 mi NNE 4.6 mph - N/A   Clear
9:55 AM 26.2 °F 20.7 °F 9.3 °F 49% 30.54 in 10.0 mi ENE 4.6 mph - N/A   Clear
10:15 AM 27.7 °F 22.4 °F 8.2 °F 44% 30.55 in 10.0 mi ENE 4.6 mph - N/A   Clear
10:35 AM 30.0 °F - 8.6 °F 41% 30.56 in 10.0 mi Calm Calm - N/A   Clear
10:55 AM 31.6 °F 28.3 °F 8.1 °F 37% 30.55 in 10.0 mi ENE 3.5 mph - N/A   Clear
11:15 AM 32.5 °F 29.3 °F 5.2 °F 32% 30.55 in 10.0 mi East 3.5 mph - N/A   Clear
11:35 AM 34.2 °F 30.0 °F 4.6 °F 29% 30.54 in 10.0 mi ENE 4.6 mph - N/A   Clear
11:55 AM 35.2 °F - 3.6 °F 26% 30.53 in 10.0 mi Calm Calm - N/A   Clear
12:15 PM 36.3 °F - 3.0 °F 25% 30.51 in 10.0 mi Calm Calm - N/A   Clear
12:35 PM 38.1 °F - 3.2 °F 23% 30.49 in 10.0 mi Calm Calm - N/A   Clear
12:55 PM 39.6 °F - 2.5 °F 21% 30.47 in 10.0 mi Calm Calm - N/A   Clear
1:15 PM 40.6 °F - 2.7 °F 21% 30.45 in 10.0 mi Calm Calm - N/A   Clear
1:35 PM 40.6 °F 37.5 °F 0.5 °F 19% 30.45 in 10.0 mi NE 4.6 mph - N/A   Clear
1:55 PM 42.4 °F 39.6 °F 1.4 °F 18% 30.45 in 10.0 mi East 4.6 mph - N/A   Clear
2:15 PM 42.8 °F 41.1 °F 1.9 °F 18% 30.44 in 10.0 mi East 3.5 mph - N/A   Clear
2:35 PM 43.9 °F 42.3 °F 2.7 °F 18% 30.44 in 10.0 mi East 3.5 mph - N/A   Clear
2:55 PM 45.3 °F - 2.8 °F 17% 30.43 in 10.0 mi Calm Calm - N/A   Clear
3:15 PM 45.9 °F 44.6 °F 3.2 °F 17% 30.43 in 10.0 mi SSE 3.5 mph - N/A   Clear
3:35 PM 45.9 °F 44.6 °F 2.1 °F 16% 30.43 in 10.0 mi SSE 3.5 mph - N/A   Clear
3:55 PM 46.8 °F - 3.4 °F 17% 30.42 in 10.0 mi ESE 4.6 mph - N/A   Clear
4:15 PM 46.4 °F 44.3 °F 3.2 °F 17% 30.42 in 10.0 mi East 4.6 mph - N/A   Clear
4:35 PM 46.6 °F - 3.6 °F 17% 30.42 in 10.0 mi ESE 4.6 mph - N/A   Clear
4:55 PM 46.0 °F 43.9 °F 2.7 °F 17% 30.42 in 10.0 mi East 4.6 mph - N/A   Clear
5:15 PM 45.0 °F 42.6 °F 3.7 °F 18% 30.43 in 10.0 mi SE 4.6 mph - N/A   Clear
5:35 PM 42.1 °F - 4.8 °F 21% 30.43 in 10.0 mi Calm Calm - N/A   Clear
5:55 PM 38.8 °F - 6.8 °F 27% 30.43 in 10.0 mi Calm Calm - N/A   Clear
6:15 PM 36.3 °F - 7.9 °F 31% 30.43 in 10.0 mi Calm Calm - N/A   Clear
6:35 PM 33.6 °F - 12.0 °F 41% 30.43 in 10.0 mi Calm Calm - N/A   Clear
6:55 PM 32.0 °F - 12.2 °F 44% 30.44 in 10.0 mi Calm Calm - N/A   Clear
7:15 PM 29.3 °F - 14.2 °F 53% 30.44 in 10.0 mi Calm Calm - N/A   Clear
7:35 PM 28.4 °F - 15.3 °F 58% 30.44 in 10.0 mi Calm Calm - N/A   Clear
7:55 PM 29.1 °F - 14.0 °F 53% 30.44 in 10.0 mi Calm Calm - N/A   Clear
8:15 PM 27.9 °F - 14.7 °F 58% 30.45 in 10.0 mi Calm Calm - N/A   Clear
8:35 PM 28.0 °F - 15.6 °F 60% 30.45 in 10.0 mi Calm Calm - N/A   Clear
8:55 PM 27.7 °F - 14.7 °F 58% 30.45 in 10.0 mi Calm Calm - N/A   Clear
9:15 PM 26.1 °F - 14.5 °F 62% 30.46 in 10.0 mi Calm Calm - N/A   Clear
9:35 PM 26.6 °F - 15.1 °F 62% 30.46 in 10.0 mi Calm Calm - N/A   Clear
9:55 PM 26.1 °F - 14.4 °F 61% 30.46 in 10.0 mi Calm Calm - N/A   Clear
10:15 PM 24.6 °F - 14.4 °F 65% 30.45 in 10.0 mi Calm Calm - N/A   Clear
10:35 PM 24.4 °F - 15.6 °F 69% 30.46 in 10.0 mi Calm Calm - N/A   Clear
10:55 PM 25.2 °F - 15.6 °F 67% 30.45 in 10.0 mi Calm Calm - N/A   Clear
11:15 PM 23.7 °F - 16.7 °F 75% 30.45 in 10.0 mi Calm Calm - N/A   Clear
11:35 PM 22.3 °F - 16.5 °F 79% 30.44 in 10.0 mi Calm Calm - N/A   Clear
11:55 PM 23.9 °F - 16.2 °F 72% 30.44 in 10.0 mi Calm Calm - N/A   Clear